Погода в Брянске

Погода в Брянске : погода сейчас, прогноз погоды и архив. Всё, что Вы хотите узнать о погоде в Брянске!

Поиск расширенной информации на нашем сайте:

Другие новости

Новости СМИ2

Главная страница сайта

Новости сайта

03.07.2017

Напоминаем, что на нашем специализированном сайте Метеоцентр.Азия вы можете получить высокодетализированные автоматические прогнозы погоды по пунктам России, СНГ и мира в авиационном формате (включающие направление и скорость ветра, видимость, явления погоды, количество и форму облачности, нижнюю и верхнюю границу облачности).


Погода в Брянске - сегодня

Время (UTC), дата Ветер
(°,м/с) 
Видим.   Явления Облачность Т
(°С)
Тd
(°С)
f(%) Тe
(°С)
Pmin
(гПа)
dP
(гПа)
Po
(мм)
O2
(г/м3)
Тmin Tmax R s Состояние
почвы
15 16.04.18 190 (Ю) 20000 м    8/0 средняя 
[Ac trans]
+19.6 +4.1 36 +21  1018.1  -1.3  745  279           
21 16.04.18 160 (Ю) 10 км    9/0 средняя 
[Ac trans]
+12.7 +5.5 62 +14  1017.9  -0.6  744  286           
00 17.04.18 тихо ()   10 км    ясно 
+9.4 +4.6 72 +9  1018  -0.3  744  289           
09 17.04.18 190 (Ю) 20000 м    10/4 600 м средняя 
[Sc|Ac As]
+17.2 +7.3 52 +19  1017.5  0.3  744  281           
03 18.04.18 280 (З) 8000 м  дымка{ливн. осадки}  10/10 630 м кучево-дожд. 
[Cb cap]
+10.6 +9.4 92 +11  1012.8  -0.8  740  285  +10.5       
06 18.04.18 300 (СЗ) 6-12{12}  12000 м  {ливн. осадки}  9/4 600 м средняя, верхняя 
[Sc|Ac trans|Ci fib]
+8.7 +4.6 75 +7  1014.4  1.5  741  289  +8.6       
18 18.04.18 300 (СЗ) 3{10}  10 км    10/10 1050 м 
[Sc]
+9.2 +3.4 67 +9  1013.9  -0.2  741  288    +12.2       
03 19.04.18 300 (СЗ) 6000 м  слаб. ливневой дождь  10/10 360 м кучево-дожд. 
[Cb cap]
+6 +5.6 97 +4  1008.1  -1.8  736  289  +6       
21 19.04.18 330 (СЗ) 4{10}  10 км    ясно 
+7.6 +4 78 +6  1012.3  1.5  740  289           
00 20.04.18 330 (СЗ) 10 км    ясно 
+6.5 +2.2 74 +6  1013.3  0.7  740  291           
15 20.04.18 340 (С) 20000 м    4/0 средняя 
[Ac trans]
+15.5 -3.8 26 +16  1016.1  -0.5  743  284           
21 20.04.18 260 (З) 10 км    ясно 
+9.6 -0.2 50 +10  1015.9  -0.8  742  289           
00 21.04.18 250 (З) 10 км    ясно 
+8 +1.1 62 +8  1014  -1.8  741  290           
09 21.04.18 240 (ЮЗ) 5-10{13}  20000 м    ясно 
+18.5 +3 36 +19  1003.4  -4.6  734  276           
18 21.04.18 290 (З) 6-10{18}  10 км  {гроза, ливн. осадки}  ясно 
+14.6 +0.2 37 +14  996.7  2.1  729  279    +21.4     
21 21.04.18 290 (З) 8-15{18}  10 км    ясно 
+9.8 -2.7 41 +8  1001.5  4.2  732  285           
00 22.04.18 290 (З) 5{12}  10 км    ясно 
+7.6 +0.6 61 +6  1002.7  733  287           
03 22.04.18 320 (СЗ) 5-10{12}  20000 м    6/0 средняя 
[Ac lent]
+7 +0.6 64 +5  1002.8  0.1  733  288  +7    0.0     
21 22.04.18 350 (С) 10 км    6/6 870 м 
[Sc]
+4 +1.2 82 +4  1011.1  1.9  738  293           
00 23.04.18 350 (С) 10 км    8/0 средняя 
[Ac trans]
+2.4 -1.9 73 +2  1012.9  1.6  740  296           
09 23.04.18 310 (СЗ) 20000 м    3/3 600 м 
[Cu hum]
+6.2 -7.1 38 +5  1016.2  0.3  742  293           
12 23.04.18 290 (З) 20000 м    4/0 верхняя 
[Ci fib]
+7.9 -8.2 31 +7  1015.6  -0.5  742  291           
15 23.04.18 310 (СЗ) 20000 м    3/0 верхняя 
[Ci fib]
+9.1 -9.4 26 +9  1015.1  -0.4  742  290           
21 23.04.18 тихо ()   10 км    ясно 
+0.5 -6.1 61 +1  1016  -0.2  742  299           
00 24.04.18 тихо ()   10 км    ясно 
-1 -5.3 73 -1  1016.3  0.2  742  301           
Время (UTC), дата Ветер
(°,м/с) 
Видим.   Явления Облачность Т
(°С)
Тd
(°С)
f(%) Тe
(°С)
Pmin
(гПа)
dP
(гПа)
Po
(мм)
O2
(г/м3)
Тmin Tmax R s Состояние
почвы

Для получения пояснительной информации подведите курсор к названию столбца.

ПОГОДА в Брянске - архив

Всё, что Вы хотите узнать о погоде в Брянске - удобно и подробно!

Выберите нужную дату (начиная с 1 января 2015* года) и нажмите кнопку "Найти".
Будут отображены архивные сводки погоды по пункту Брянск, начиная с указанной даты.


Отображать данные в формате CSV (для использования в таблицах Excel)


Внимание! Наш архив погоды предназначен исключительно для личного некоммерческого использования в познавательных целях. Если Вам необходимы официальные справки о состоянии погоды (для производственных, юридических, коммерческих и т.п. целей), обращайтесь в органы Росгидромета.

*Примечание: данная дата относится к архиву по метеостанциям СССР (Россия, СНГ, Балтия).
Архив по метеостанциям Зарубежной Европы и Азии (кроме Китая) хранится 10 дней, по другим регионам земного шара (Китай, Африка, Америка, Австралия, Океания) - 1 день.

Брянск - район местоположения метеостанции


Название, широта, долгота, высота метеостанции:
Брянск (город) 53.2°ш. 34.3°д. 216 м над ур. моря [Российская Федерация]

Дополнительная информация

В oтличие oт бoльшинства пoгoдных сайтoв мы публикуем пoдрoбную метеoинфoрмацию в детальнoм прoфессиoнальнoм фoрмате.

Характеристики температуры и влажнoсти вoздуха измеряются на высoте 2 м в тени вдали oт зданий и деревьев.
Скoрoсть ветра измеряется на высoте 10 м (на урoвне рoста челoвека скoрoсть ветра ниже в 1.5-2 раза). Если метеoстанция нахoдится в гoрoде или в лесу, тo скoрoсть ветра занижена на 2-4 м/с пo сравнению с oткрытым местoм. Скoрoсть ветра над акватoриями крупных рек и oзёр, а также на вершинах хoлмoв на 2-5 м/с выше, чем в oбычных услoвиях.
Атмoсфернoе давление в разных тoчках местнoсти мoжет значительнo oтличаться oт давления на метеoстанции, в зависимoсти oт услoвий рельефа (при пoдъёме на 10 м давление пoнижается примернo на 1 мм рт.ст.).